OSIRIS-3U (43027 NORAD) Tracking and Keplerian Element Data

This shows tracking and keplerian element data for the satellite.

Feedback or suggestion? Click here.




ElementValue
Catalog43027
NameOSIRIS-3U
Epoch Orbit5629
Epoch Day320.22873906
Epoch Year2018
RAAN315.4067
Inclination51.6364
Eccentricity0.0005231
Argument of Perigee42.3115
Mean Anonmoly317.8288
Mean Motion15.7627324
Decay Rate0.00062716
L11 43027U 98067NL 18320.22873906 .00062716 00000-0 39122-3 0 9999
L22 43027 51.6364 315.4067 0005231 42.3115 317.8288 15.76273240 56292

Live tracking and technical data element details for OSIRIS-3U (NORAD 43027). OSIRIS-3U can be tracked NOW for your location showing map with azimuth and elevation plus other details from your city location.

Track the satellite on the map from your city or location and see movement details for azimuth, elevation, latitude, longitude, range, height, and movement on the map or in text.







IsCatalogInMostPopularTable: catalog: 43027, numindb: 139
Update: records affected: 1



GetName: 43027 OSIRIS-3U

Hit Count: updated at: Fri, 16 Nov 2018 11:28:04 GMT